Погода в Вирге

Россия / Пензенская область     53°27′09″N   44°01′25″E
темп.,
°C
ветер,
м/с
пор.,
м/с
влажн.,
%
обл.,
%
осадки,
мм/ч
давл.,
гПа
погр.,
м
16 апреля, пт
пт1600:00+12юв3362100 0.0 101633
03:00+11юв2263100 0.0 101615
06:00+10в3463100 0.0 101749
09:00+14в4652100 0.0 1017264
12:00+17вюв4641100 0.0 1018739
15:00+19вюв4535100 0.0 10181369
18:00+17в335074 0.0 101847
21:00+13в5116980 0.0 1019224
17 апреля, сб
сб1700:00+11в51284100 0.0 1020279
03:00+9в51189100 0.0 1021246
06:00+8в5119051 0.0 1020260
09:00+13в7106758 0.0 1020476
12:00+17вюв685090 0.0 10191223
15:00+19вюв894095 0.0 10182680
18:00+16в61156100 0.2 1018707
21:00+9з2478100 1.9 1021326
18 апреля, вс
вс1800:00+9з3492100 3.4 1021244
03:00+8с2396100 9.4 1020153
06:00+8св1296100 0.7 1020131
09:00+8в3492100 0.8 1020371
12:00+9всв328685 0.1 1021424
15:00+10всв3378100 0.2 1021703
18:00+10св448146 0.0 1021490
21:00+8всв4888100 0.1 1022313
19 апреля, пн
пн1900:00+7в4890100 0.1 1022259
03:00+7всв4889100 0.1 1022290
06:00+6в61286100 0.0 1022472
09:00+7в61187100 0.0 1023610
12:00+6в71188100 0.0 1023683
15:00+5в71283100 0.1 1024733
18:00+5в61188100 0.1 1024869
21:00+5в61294100 0.2 1024669
20 апреля, вт
вт2000:00+5в61194100 0.1 1023693
03:00+4вюв71391100 0.1 1022571
06:00+4в71391100 0.0 1022613
09:00+5вюв91687100 0.0 1021663
12:00+8вюв101577100 0.0 1019780
15:00+8вюв111877100 0.1 1017898
18:00+6вюв112087100 3.1 1016792
21:00+6юв122388100 7.6 1016878